GW5306 Weather Reports


time (UTC)temp
C
wind
direction
speed
KPH
gust
KPH
rain 1hr
cm
rain 24hr
cm
rain mn
cm
humidity
%
barometer
mb
20260505000446 26 340 1.6 1.6 0.00 0.00 0.00 79 1010.0
20260504235946 26 340 1.6 1.6 0.00 0.00 0.00 80 1010.0
20260504235447 26 343 3.2 4.8 0.00 0.00 0.00 80 1010.0
20260504234946 26 352 3.2 4.8 0.00 0.00 0.00 80 1010.0
20260504234447 26 10 4.8 4.8 0.00 0.00 0.00 80 1010.0
20260504233947 26 17 1.6 1.6 0.00 0.00 0.00 80 1010.0
20260504233447 26 136 3.2 3.2 0.00 0.00 0.00 79 1010.0
20260504232946 26 142 0.0 1.6 0.00 0.00 0.00 76 1010.0
20260504232446 26 142 0.0 0.0 0.00 0.00 0.00 77 1010.0
20260504231946 26 142 0.0 0.0 0.00 0.00 0.00 77 1010.0
20260504231447 26 142 0.0 0.0 0.00 0.00 0.00 77 1010.0
20260504230947 26 142 1.6 1.6 0.00 0.00 0.00 76 1010.0
20260504230446 27 142 0.0 0.0 0.00 0.00 0.00 74 1010.0
20260504225947 27 142 0.0 0.0 0.00 0.00 0.00 74 1010.0
20260504225446 27 142 0.0 0.0 0.00 0.00 0.00 73 1009.0
20260504224947 27 142 0.0 1.6 0.00 0.00 0.00 73 1009.0
20260504224451 26 142 0.0 0.0 0.00 0.00 0.00 74 1009.0
20260504223946 26 142 0.0 0.0 0.00 0.00 0.00 75 1009.0
20260504223447 26 142 0.0 1.6 0.00 0.00 0.00 76 1009.0
20260504222946 26 142 1.6 1.6 0.00 0.00 0.00 76 1009.0
20260504222446 26 142 0.0 0.0 0.00 0.00 0.00 76 1009.0
20260504221946 26 142 1.6 1.6 0.00 0.00 0.00 75 1009.0
20260504221446 27 142 1.6 1.6 0.00 0.00 0.00 73 1009.0
20260504220946 27 142 1.6 1.6 0.00 0.00 0.00 72 1009.0
20260504220447 27 142 0.0 0.0 0.00 0.00 0.00 72 1009.0
20260504215946 27 142 0.0 0.0 0.00 0.00 0.00 72 1009.0
20260504215446 27 142 0.0 0.0 0.00 0.00 0.00 72 1009.0
20260504214946 27 142 1.6 1.6 0.00 0.00 0.00 72 1009.0
20260504214447 27 142 0.0 0.0 0.00 0.00 0.00 72 1009.0
20260504213947 27 142 1.6 1.6 0.00 0.00 0.00 72 1009.0
20260504213447 27 142 1.6 1.6 0.00 0.00 0.00 72 1009.0
20260504212946 27 142 0.0 0.0 0.00 0.00 0.00 72 1009.0
20260504212446 27 142 0.0 1.6 0.00 0.00 0.00 72 1009.0
20260504211946 27 142 0.0 0.0 0.00 0.00 0.00 72 1009.0
20260504211446 27 142 0.0 0.0 0.00 0.00 0.00 71 1009.0
20260504210946 27 142 0.0 0.0 0.00 0.00 0.00 72 1009.0
20260504210446 26 142 0.0 0.0 0.00 0.00 0.00 73 1009.0
20260504205947 26 142 0.0 0.0 0.00 0.00 0.00 75 1009.0
20260504205447 26 142 0.0 0.0 0.00 0.00 0.00 74 1009.0
20260504204947 27 142 0.0 0.0 0.00 0.00 0.00 74 1009.0
20260504204447 27 142 0.0 0.0 0.00 0.00 0.00 72 1009.0
20260504203947 27 142 0.0 0.0 0.00 0.00 0.00 72 1009.0
20260504203446 27 142 0.0 0.0 0.00 0.00 0.00 72 1009.0
20260504202948 27 142 0.0 0.0 0.00 0.00 0.00 72 1009.0
20260504202446 27 142 0.0 0.0 0.00 0.00 0.00 72 1009.0
20260504201954 27 142 0.0 1.6 0.00 0.00 0.00 72 1009.0
20260504201446 27 142 0.0 0.0 0.00 0.00 0.00 72 1009.0
20260504200946 27 142 0.0 0.0 0.00 0.00 0.00 71 1009.0
20260504200446 27 142 0.0 0.0 0.00 0.00 0.00 71 1010.0
20260504195946 27 142 0.0 0.0 0.00 0.00 0.00 71 1010.0
20260504195449 27 142 1.6 1.6 0.00 0.00 0.00 69 1009.0
20260504194946 27 141 0.0 0.0 0.00 0.00 0.00 70 1009.0
20260504194447 27 141 0.0 0.0 0.00 0.00 0.00 70 1009.0
20260504193946 27 141 0.0 1.6 0.00 0.00 0.00 70 1009.0
20260504193447 27 141 0.0 0.0 0.00 0.00 0.00 70 1009.0
20260504192946 27 142 1.6 1.6 0.00 0.00 0.00 70 1009.0
20260504192447 27 142 0.0 0.0 0.00 0.00 0.00 70 1010.0
20260504191946 27 142 1.6 3.2 0.00 0.00 0.00 71 1010.0
20260504191446 27 141 1.6 3.2 0.00 0.00 0.00 70 1010.0
20260504190952 27 122 1.6 1.6 0.00 0.00 0.00 70 1010.0
20260504190447 27 62 1.6 3.2 0.00 0.00 0.00 69 1010.0
20260504185946 27 61 1.6 1.6 0.00 0.00 0.00 69 1010.0
20260504185446 27 57 1.6 1.6 0.00 0.00 0.00 69 1010.0
20260504184946 27 160 0.0 0.0 0.00 0.00 0.00 68 1010.0
20260504184448 27 160 0.0 0.0 0.00 0.00 0.00 68 1010.0
20260504183947 27 160 0.0 1.6 0.00 0.00 0.00 69 1010.0
20260504183446 27 160 0.0 1.6 0.00 0.00 0.00 69 1010.0
20260504182950 27 160 0.0 1.6 0.00 0.00 0.00 69 1010.0
20260504182446 27 168 1.6 1.6 0.00 0.00 0.00 69 1010.0
20260504181947 27 183 4.8 4.8 0.00 0.00 0.00 69 1010.0
20260504181446 27 186 4.8 4.8 0.00 0.00 0.00 69 1010.0
20260504180947 27 179 3.2 3.2 0.00 0.00 0.00 69 1010.0
20260504180446 27 181 3.2 4.8 0.00 0.00 0.00 69 1010.0
20260504175947 27 192 0.0 0.0 0.00 0.00 0.00 68 1010.0
20260504175446 27 167 1.6 1.6 0.00 0.00 0.00 69 1010.0
20260504174948 27 182 6.4 6.4 0.00 0.00 0.00 69 1010.0
20260504174446 28 221 1.6 3.2 0.00 0.00 0.00 68 1010.0
20260504173947 28 210 0.0 1.6 0.00 0.00 0.00 68 1010.0
20260504173446 27 203 1.6 1.6 0.00 0.00 0.00 68 1011.0
20260504172948 28 167 4.8 4.8 0.00 0.00 0.00 68 1011.0
20260504172446 28 167 4.8 4.8 0.00 0.00 0.00 68 1010.0
20260504171952 28 187 4.8 4.8 0.00 0.00 0.00 67 1010.0
20260504171447 28 179 3.2 4.8 0.00 0.00 0.00 67 1010.0
20260504170947 28 196 1.6 3.2 0.00 0.00 0.00 67 1010.0
20260504170447 28 202 3.2 4.8 0.00 0.00 0.00 67 1010.0
20260504160447 28 183 1.6 3.2 0.00 0.00 0.00 67 1010.0
20260504150949 28 32 3.2 3.2 0.00 0.00 0.00 69 1010.0
20260504150446 28 139 0.0 1.6 0.00 0.00 0.00 70 1010.0
20260504140946 29 124 4.8 4.8 0.00 0.00 0.00 62 1008.0
20260504140447 30 118 6.4 6.4 0.00 0.00 0.00 60 1008.0
20260504130446 29 282 3.2 3.2 0.00 0.00 0.00 60 1007.0
20260504110446 31 332 6.4 6.4 0.00 0.00 0.00 57 1006.0
20260504100447 30 259 3.2 3.2 0.00 0.00 0.00 51 1006.0
20260504081947 36 21 0.0 0.0 0.00 0.00 0.00 49 1006.0
20260504081446 36 129 9.7 11.3 0.00 0.00 0.00 50 1006.0
20260504080946 37 167 8.0 9.7 0.00 0.00 0.00 49 1007.0
20260504080448 36 241 3.2 4.8 0.00 0.00 0.00 49 1007.0
20260504050448 33 183 0.0 1.6 0.00 0.00 0.00 57 1010.0
20260504045946 33 202 1.6 1.6 0.00 0.00 0.00 57 1010.0
20260504045447 33 169 1.6 1.6 0.00 0.00 0.00 58 1010.0
20260504044948 32 168 3.2 4.8 0.00 0.00 0.00 60 1010.0
20260504044446 32 158 9.7 12.9 0.00 0.00 0.00 61 1010.0
20260504043947 33 184 6.4 9.7 0.00 0.00 0.00 59 1010.0
20260504043446 32 176 11.3 14.5 0.00 0.00 0.00 61 1010.0
20260504042947 32 134 4.8 6.4 0.00 0.00 0.00 62 1010.0
20260504042446 31 185 6.4 11.3 0.00 0.00 0.00 62 1010.0
20260504041946 32 200 4.8 9.7 0.00 0.00 0.00 62 1010.0
20260504041446 32 111 8.0 11.3 0.00 0.00 0.00 61 1010.0
20260504040946 32 175 4.8 4.8 0.00 0.00 0.00 58 1010.0
20260504040446 32 179 1.6 1.6 0.00 0.00 0.00 59 1010.0
20260504035946 32 101 0.0 0.0 0.00 0.00 0.00 60 1010.0
20260504035446 32 204 1.6 1.6 0.00 0.00 0.00 61 1010.0
20260504034947 32 143 6.4 6.4 0.00 0.00 0.00 60 1010.0
20260504034446 31 138 3.2 4.8 0.00 0.00 0.00 62 1010.0
20260504033947 32 184 0.0 1.6 0.00 0.00 0.00 61 1010.0
20260504033447 31 235 3.2 4.8 0.00 0.00 0.00 62 1011.0
20260504032946 31 246 1.6 1.6 0.00 0.00 0.00 62 1010.0
20260504032446 31 164 1.6 1.6 0.00 0.00 0.00 64 1010.0
20260504031950 31 183 1.6 3.2 0.00 0.00 0.00 63 1010.0
20260504031446 30 138 3.2 3.2 0.00 0.00 0.00 65 1010.0
20260504030946 30 249 3.2 3.2 0.00 0.00 0.00 66 1010.0
20260504030447 29 245 3.2 4.8 0.00 0.00 0.00 68 1010.0
20260504025946 30 159 3.2 4.8 0.00 0.00 0.00 66 1010.0
20260504025446 29 205 4.8 4.8 0.00 0.00 0.00 67 1010.0
20260504024947 28 178 3.2 4.8 0.00 0.00 0.00 69 1010.0
20260504024447 28 131 6.4 6.4 0.00 0.00 0.00 71 1010.0
20260504023946 28 140 0.0 1.6 0.00 0.00 0.00 71 1010.0
20260504023447 28 125 3.2 3.2 0.00 0.00 0.00 72 1010.0
20260504022946 28 181 0.0 0.0 0.00 0.00 0.00 71 1010.0
20260504022446 27 180 3.2 4.8 0.00 0.00 0.00 73 1010.0
20260504021946 27 155 0.0 1.6 0.00 0.00 0.00 73 1010.0
20260504021446 27 157 4.8 6.4 0.00 0.00 0.00 74 1010.0
20260504020947 27 159 3.2 3.2 0.00 0.00 0.00 75 1010.0
20260504020446 27 148 6.4 9.7 0.00 0.00 0.00 76 1010.0
20260504015947 27 125 6.4 11.3 0.00 0.00 0.00 76 1010.0
20260504015446 27 147 3.2 4.8 0.00 0.00 0.00 75 1009.0
20260504014946 26 167 6.4 6.4 0.00 0.00 0.00 76 1009.0
20260504014446 26 140 3.2 3.2 0.00 0.00 0.00 77 1009.0
20260504013946 26 121 0.0 0.0 0.00 0.00 0.00 76 1009.0
20260504013446 26 136 4.8 4.8 0.00 0.00 0.00 77 1009.0
20260504012946 26 128 4.8 4.8 0.00 0.00 0.00 76 1009.0
20260504012446 26 97 1.6 3.2 0.00 0.00 0.00 76 1009.0
20260504011947 26 97 3.2 4.8 0.00 0.00 0.00 77 1009.0
20260504011446 26 90 3.2 4.8 0.00 0.00 0.00 77 1009.0
20260504010946 26 79 1.6 1.6 0.00 0.00 0.00 78 1009.0
20260504010447 26 34 1.6 1.6 0.00 0.00 0.00 78 1009.0
20260504005947 26 79 0.0 1.6 0.00 0.00 0.00 78 1009.0
20260504005446 26 81 0.0 0.0 0.00 0.00 0.00 78 1009.0
20260504004946 26 65 0.0 0.0 0.00 0.00 0.00 79 1009.0
20260504004446 25 93 0.0 1.6 0.00 0.00 0.00 79 1009.0
20260504003946 25 56 8.0 12.9 0.00 0.00 0.00 80 1009.0
20260504003452 25 72 1.6 1.6 0.00 0.00 0.00 81 1008.0
20260504002946 25 42 3.2 4.8 0.00 0.00 0.00 81 1009.0
20260504002447 25 31 3.2 4.8 0.00 0.00 0.00 81 1008.0
20260504001946 25 47 1.6 1.6 0.00 0.00 0.00 81 1008.0
20260504001446 25 37 1.6 1.6 0.00 0.00 0.00 81 1008.0
20260504000946 25 17 3.2 4.8 0.00 0.00 0.00 81 1008.0